Weather in Novoe Domozerovo

Russia / Vologda Oblast     59°02′33″N   38°08′24″E
temp.,
°C
wind,
m/s
gust,
m/s
humid.,
%
clouds,
%
prec.,
mm/h
press.,
hPa
HPBL,
m
14 april, wed
wed1400:00+7sse3986100 0.1 1021136
03:00+7sse411846 0.1 1020178
06:00+8s51378100 0.0 1019295
09:00+10s51274100 0.0 1018297
12:00+14s6126556 0.0 1017700
15:00+16ssw51064100 0.0 1017742
18:00+13w2782100 0.9 1017266
21:00+8n4791100 1.6 1020342
15 april, thu
thu1500:00+6n4992100 0.8 1021399
03:00+5nne4988100 3.5 1022507
06:00+4nne4108898 0.7 1023527
09:00+6ne51079100 0.8 1024687
12:00+7ne4869100 0.0 1025938
15:00+8ne4862100 0.1 10261235
18:00+7ne5864100 0.0 10271024
21:00+5ne41269100 0.0 1028644
16 april, fri
fri1600:00+3ene4136780 0.0 1029543
03:00+1ene4137470 0.0 1030453
06:000ene4137952 0.0 1030422
09:00+5ene510605 0.0 1031613
12:00+9ene57455 0.0 1031993
15:00+10ene57405 0.0 10301188
18:00+9ene48485 0.0 1030948
21:00+4ne39695 0.0 1032185
17 april, sat
sat1700:00+3ene310755 0.0 1033196
03:00+1ene38785 0.0 1033158
06:00+1ene38775 0.0 1034165
09:00+7ene36525 0.0 1034458
12:00+10ene45415 0.0 10341161
15:00+12ne45395 0.0 10331441
18:00+11ne35495 0.0 1032642
21:00+6ene22695 0.0 103335
18 april, sun
sun1800:00+4ene23742 0.0 103342
03:00+3ene23795 0.0 103443
06:00+3ene24815 0.0 103478
09:00+8ene35605 0.0 1034422
12:00+12ene34455 0.0 10331468
15:00+13ne34415 0.0 10331830
18:00+12ene35505 0.0 1032449
21:00+7ene22655 0.0 103317